Weather History for Pian Rosa, Italy

Change the Weather History Date:

Friday, November 15, 2013

  Actual Average Record
Temperature  
Mean Temperature 10 °F -  
Max Temperature 17 °F 21 °F 34 °F (2012)
Min Temperature 4 °F 11 °F -11 °F (2007)
Degree Days  
Heating Degree Days 54    
Moisture  
Dew Point 9 °F    
Average Humidity 95    
Maximum Humidity 100    
Minimum Humidity 90    
Precipitation  
Precipitation 0.02 in - - ()
Sea Level Pressure  
Sea Level Pressure 29.87 in    
Wind  
Wind Speed 22 mph ()    
Max Wind Speed 39 mph    
Max Gust Speed 64 mph    
Visibility 1.7 miles    
Events Fog , Snow    
Averages and records for this station are not official NWS values.
T = Trace of Precipitation, MM = Missing Value Source: Averaged Metar Reports

Daily Weather History Graph

Daily Weather History Graph

Search for Another Location

Airport:

Trip Planner

Search our weather history database for the weather conditions in past years. The results will help you decide how hot, cold, wet, or windy it might be!

Date:

Astronomy

Nov. 15, 2013 Rise Set
Actual Time 7:29 AM CET 4:57 PM CET
Civil Twilight 6:57 AM CET 5:30 PM CET
Nautical Twilight 6:20 AM CET 6:06 PM CET
Astronomical Twilight 5:45 AM CET 6:41 PM CET
Moon 3:49 PM CET (11/15) 5:03 AM CET (11/15)
Length of Visible Light 10h 33m
Length of Day
9h 28m
Waxing Gibbous, 95% of the Moon is Illuminated
Nov 15
Waxing Gibbous
Nov 17
Full
Nov 25
Last Quarter
Dec 3
New
Dec 9
First Quarter

Hourly Weather History & Observations

Time (CET) Temp. Windchill Dew Point Humidity Pressure Visibility Wind Dir Wind Speed Gust Speed Precip Events Conditions
12:00 AM 5 °F - 4 °F 94%  in 0 mi NE 23.0 mph - - Snow Light Snow
12:55 AM 5.0 °F -18.3 °F 3.2 °F 92% 29.62 in 0.0 mi ENE 27.6 mph 46.0 mph N/A Fog , Snow Light Snow
1:00 AM 5 °F - 4 °F 93%  in 0 mi ENE 27.6 mph - - Snow Light Snow
1:55 AM 5.0 °F -18.7 °F 3.2 °F 92% 29.62 in 0.0 mi NE 28.8 mph 47.2 mph N/A Fog , Snow Light Snow
2:00 AM 5 °F - 4 °F 93%  in 0 mi NE 28.8 mph - - Snow Light Snow
2:55 AM 5.0 °F -14.2 °F 3.2 °F 92% 29.62 in 0.0 mi NE 17.3 mph 36.8 mph N/A Fog , Snow Light Snow
3:00 AM 5 °F - 4 °F 93%  in 0 mi NE 17.3 mph - - Snow Light Snow
3:55 AM 5.0 °F -12.3 °F 3.2 °F 92% 29.62 in 0.0 mi ENE 13.8 mph - N/A Fog , Snow Snow
4:00 AM 5 °F - 4 °F 93%  in 0 mi ENE 13.8 mph - - Snow Snow
4:55 AM 5.0 °F -11.6 °F 5.0 °F 100% 29.62 in 0.0 mi ENE 12.7 mph - N/A Fog , Snow Snow
5:00 AM 5 °F - 4 °F 95%  in 0 mi ENE 12.7 mph - - Snow Snow
5:55 AM 10.4 °F -9.5 °F 8.6 °F 92% 29.62 in 0.1 mi SE 23.0 mph 47.2 mph N/A Fog , Snow Snow
6:00 AM 10 °F - 9 °F 91%  in 0 mi SE 23.0 mph - - Snow Snow
6:55 AM 8.6 °F -14.1 °F 8.6 °F 100% 29.62 in 0.1 mi ESE 29.9 mph 42.6 mph N/A Fog , Snow Light Snow
7:00 AM 9 °F - 8 °F 93%  in 0 mi ESE 29.9 mph - - Snow Light Snow
7:55 AM 8.6 °F -10.5 °F 6.8 °F 92% 29.65 in 0.1 mi SE 19.6 mph 43.7 mph N/A Fog , Snow Light Snow
8:00 AM 9 °F - 8 °F 90%  in 0 mi SE 19.6 mph - - Snow Light Snow
8:55 AM 8.6 °F -16.3 °F 8.6 °F 100% 29.65 in 0.1 mi ESE 38.0 mph 52.9 mph N/A Fog , Snow Light Snow
9:00 AM 9 °F - 8 °F 92%  in 0 mi ESE 38.0 mph - - Snow Light Snow
9:55 AM 8.6 °F -11.4 °F 8.6 °F 100% 29.68 in 0.1 mi SW 21.9 mph 43.7 mph N/A Fog , Snow Light Snow
10:00 AM 9 °F - 8 °F 92%  in 0 mi SW 21.9 mph - - Snow Light Snow
10:55 AM 10.4 °F -13.8 °F 8.6 °F 92% 29.71 in 0.1 mi ESE 38.0 mph 55.2 mph N/A Fog , Snow Light Snow
11:55 AM 10.4 °F -14.1 °F 10.4 °F 100% 29.77 in 0.1 mi ESE 39.1 mph 64.4 mph N/A Fog , Snow Light Snow
1:00 PM 11 °F - 10 °F 93%  in 0 mi East 27.6 mph - - Snow Light Snow
1:55 PM 10.4 °F -12.7 °F 10.4 °F 100% 29.89 in 0.1 mi ESE 33.4 mph 48.3 mph N/A Fog , Snow Light Snow
2:55 PM 12.2 °F -6.7 °F 10.4 °F 92% 29.92 in 0.1 mi SSE 21.9 mph 43.7 mph N/A Fog , Snow Light Snow
3:55 PM 12.2 °F -9.3 °F 10.4 °F 92% 29.98 in 0.1 mi East 29.9 mph 50.6 mph N/A Fog , Snow Light Snow
4:00 PM 12 °F - 11 °F 94%  in 0 mi East 29.9 mph - - Snow Light Snow
4:55 PM 14.0 °F -5.8 °F 14.0 °F 100% 30.01 in 0.1 mi ESE 26.5 mph 41.4 mph N/A Fog , Snow Light Snow
5:00 PM 14 °F - 13 °F 94%  in 0 mi ESE 26.5 mph - - Snow Light Snow
5:55 PM 14.0 °F 5.1 °F 14.0 °F 100% 30.09 in 0.5 mi ENE 5.8 mph - N/A Fog Light Freezing Fog
6:55 PM 14.0 °F -1.4 °F 14.0 °F 100% 30.15 in 6.2 mi East 15.0 mph 33.4 mph N/A   Scattered Clouds
7:00 PM 14 °F - 13 °F 97%  in 6 mi East 15.0 mph - - Fog Light Fog
7:55 PM 12.2 °F -3.1 °F 12.2 °F 100% 30.18 in 6.2 mi East 13.8 mph - N/A   Scattered Clouds
8:00 PM 13 °F - 12 °F 96%  in 6 mi East 13.8 mph - -   Partly Cloudy
8:55 PM 14.0 °F -4.7 °F 14.0 °F 100% 30.21 in 6.2 mi East 23.0 mph - N/A   Partly Cloudy
9:00 PM 14 °F - 14 °F 98%  in 9 mi East 23.0 mph - -   Scattered Clouds
9:55 PM 15.8 °F -3.1 °F 15.8 °F 100% 30.24 in 6.2 mi East 25.3 mph - N/A   Partly Cloudy
10:00 PM 16 °F - 16 °F 98%  in 9 mi East 25.3 mph - -   Scattered Clouds
10:55 PM 17.6 °F 0.5 °F 15.8 °F 93% 30.24 in 6.2 mi ESE 21.9 mph - N/A   Partly Cloudy
11:55 PM 17.6 °F 2.2 °F 17.6 °F 100% 30.27 in 6.2 mi ESE 17.3 mph - N/A   Partly Cloudy